DELTA 1 DEB, 14493

Orbit data source: Space-Track

DELTA 1 DEB, 14493 is space debris in LEO originally from a launch on Thu, 14 Jul 1977 UTC launched from the Air Force Eastern Test Range (AFETR). Debris objects in space refer to the collection of defunct objects orbiting the Earth. Examples of debris include non-operational satellites, rocket bodies, and fragments generated from explosions, collisions, or faulty payload assembly.

Loading next visibility...
Identifier
14493, 1977-065FJ
Orbit
LEO
Country
Flag of USUS
Related business
Manufacturer
Unknown
Mission
Spacecraft
Bus & Motor
Unknown
Mass
Unknown
Launch date (UTC)
1977-07-14 (48 years ago)
Launch vehicle
Unknown
Launch site
Air Force Eastern Test Range (AFETR)
Object type
Payload
Rocket body
Debris
Shape & HBR
Unknown shape, 0.1 m
Radar Cross Section
Small (<0.1 m²)

Expand to show TLE details & history
Last TLE update: 17 hours ago

TLE from 17 hours ago
0 DELTA 1 DEB
1 14493U 77065FJ  25306.45790233  .00002426  00000-0  44733-3 0  9993
2 14493  28.9467  17.0993 0564783 115.2490 250.7689 13.93375075200601
Epoch: 2025-11-02T10:59Z
TLE epoch observation values (Epoch: 2025-11-02T10:59:22.761Z)
Latitude
0.00002°
Longitude
170.28115°
Altitude
1,071.034 km
Speed
7.24 km/s
True Right ascension
01h 08m 23s
True Declination
0° 00' 00"
Sunlit
Object was in full shadow at epoch
Visualization orbit readout
Latitude
Unknown
Longitude
Unknown
Altitude
Unknown
Speed
Unknown
Apparent Right ascension
Unknown
Apparent Declination
Unknown
Sunlit
N/A
Visualization observer readout
Local Sidereal Time
23:51:33
Azimuth
Unknown
Elevation
Unknown
Doppler factor
Unknown
Orbital elements
Apogee altitude
1,332.997 km
Perigee altitude
508.538 km
Semi-major axis
7,298.905 km
Eccentricity
0.05648
Inclination
28.9467°
RAAN
17.0993°
Arg. of periapsis
115.249°
True anomaly
244.80784°
Mean anomaly
250.7689°
Eccentric anomaly
247.77338°
Mean motion
3.48062 °/min
Orbital period
103.43 mins
BSTAR
0.00044733
Loading maneuver chart data...
Computing Atmospheric mass density...
Loading historical data...
Loading historical data...
Loading historical data...
Loading historical data...
Loading historical data...
Loading historical data...
Loading historical data...

Documentation

Showing up to 5 results
|